Regional Weather Roundup
Issued by NWS

Home | Current Version | Previous Version | Graphics & Text | Print | Product List | Glossary On
Versions: 1 2 3 4 5 6 7 8 9 10 11 12 13 14 15 16 17 18 19 20 21 22 23 24 25 26 27 28 29 30 31 32 33 34 35 36 37 38 39 40 41 42 43 44 45 46 47 48 49 50
000
ASUS44 KMEG 020500
RWRTN
TENNESSEE HOURLY STATE WEATHER ROUNDUP
NATIONAL WEATHER SERVICE MEMPHIS TN
1200 AM CDT SAT AUG 02 2014

TNZ002-004-019-021-049-052-054-088>092-020600-
WEST TENNESSEE

CITY           SKY/WX    TMP DP  RH WIND       PRES   REMARKS
MEMPHIS INTL   MOCLDY    79  63  57 E3        30.04R
NWS MEMPHIS      N/A     72 N/A N/A MISG        N/A
JACKSON        CLEAR     67  65  93 CALM      30.05R
DYERSBURG      CLEAR     72  57  60 CALM      30.06S
UNION CITY     CLOUDY    68  68 100 CALM      30.05R
PARIS          PTCLDY    64  63  94 CALM      30.07R
LEXINGTON      CLOUDY    68  66  94 CALM      30.04S
SAVANNAH       PTCLDY    70  70 100 CALM      30.05S
$$

TNZ008-025-027-028-033-062-065-066-020600-
NORTH MIDDLE TENNESSEE

CITY           SKY/WX    TMP DP  RH WIND       PRES   REMARKS
NASHVILLE      CLOUDY    78  66  66 NW3       30.05S
CLARKSVILLE    PTCLDY    69  62  78 N3        30.05S
COOKEVILLE     PTCLDY    72  70  94 CALM      30.07S
CROSSVILLE     CLOUDY    69  64  84 CALM      30.12S
$$

TNZ061-075-076-078-094-096-097-020600-
SOUTH MIDDLE TENNESSEE

CITY           SKY/WX    TMP DP  RH WIND       PRES   REMARKS
FAYETTEVILLE   CLOUDY    70  63  78 E10G21    30.07S
TULLAHOMA      CLOUDY    72  64  78 CALM      30.08S
WINCHESTER     CLOUDY    70  66  88 CALM      30.08S
MCMINNVILLE    CLOUDY    72  72 100 CALM      30.08S
COLUMBIA       CLOUDY    72  70  94 CALM      30.05R
SHELBYVILLE    PTCLDY    72  70  94 CALM      30.07S
$$

TNZ017-018-042-046-047-020600-
NORTHEAST TENNESSEE

CITY           SKY/WX    TMP DP  RH WIND       PRES   REMARKS
TRI CITIES     PTCLDY    63  57  81 CALM      30.13S
ELIZABETHTON   CLEAR     63  57  82 CALM      30.14S
$$

TNZ012-013-036-069-073-074-020600-
CENTRAL EAST TENNESSEE

CITY           SKY/WX    TMP DP  RH WIND       PRES   REMARKS
KNOXVILLE      MOCLDY    75  66  73 NW3       30.07R
OAK RIDGE      CLOUDY    74  66  76 CALM      30.09R
GATLINBURG     CLEAR     70  64  83 CALM      30.08R
$$

TNZ083-085-099-020600-
SOUTHEAST TENNESSEE

CITY           SKY/WX    TMP DP  RH WIND       PRES   REMARKS
CHATTANOOGA    MOCLDY    73  69  87 CALM      30.08R
$$

SKY/WX REPORTED AS FAIR MEANS FEW OR NO CLOUDS BELOW
12 THOUSAND FEET.



USA.gov is the U.S. government's official web portal to all federal, state and local government web resources and services.